STARLINK-35358

Satellite information

Favourite Embed

Satellite Type and Status

PAYLOADIN ORBIT

Key statistics

Satellite STARLINK-35358 at a glance.

Uptime

30

Days in orbit

Revolutions

≈ 15.6

Per day

Orbit

LEO

Low Earth Orbit

Inclination

43.0

Latest

Satellite identification and parameters

Extended collection of information and parameters for STARLINK-35358.

Object identification

Identified? True

Debris? False

Object name: STARLINK-35358

International designator: 2025-268H

Object number (NORAD): 66564

Object ID (CCSDS): 66564

Country: UNITED STATES OF AMERICA (US)

Current information (Y/N): Y

Orbital parameters

Period: 92.523 minutes

Inclination: 43.0017 deg

SMA: 6776.305 km

Apoapsis: 399.296 km

Periapsis: 397.045 km

RAAN: 73.3012 deg

Eccentricy: 0.00016615

Argument of periapsis: 260.5509 deg

Mean anomaly: 208.4304 deg

Mean motion: 15.5637163 rev/day

Mean motion (dot): 0.00028447 rev/day2

B* drag term: 0.00039636493 1/REarth

Two-line elements (TLE)

Creation date: Dec. 21, 2025, 3:42 a.m.

Reference frame: TEME

Reference center: EARTH

Epoch: Dec. 20, 2025, 10 p.m. UTC

TLE line 0: 0 STARLINK-35358

TLE line 1: 1 66564U 25268H 25354.91668981 .00028447 00000-0 39636-3 0 9992

TLE line 2: 2 66564 43.0017 73.3012 0001662 260.5509 208.4304 15.56371630 5937

Live tracking on map

Real-time ground track for satellite STARLINK-35358.

In-orbit conjunctions

There are no conjunctions computed for STARLINK-35358, at the moment. Check back to stay up to date, as we update our databases every day.

Go to all conjunctions

Associated space launch

A batch of 29 satellites for the Starlink mega-constellation - SpaceX's project for space-based Internet communication system.

STARLINK-35358 was lifted into orbit during the mission ‘Falcon 9 Block 5 | Starlink Group 6-78’, on board a Falcon 9 space rocket.

The launch took place on Nov. 21, 2025, 3:39 a.m. from Launch Complex 39A.

For more information about the launch, click the button.

Launch to space Falcon 9 Block 5 | Starlink Group 6-78
Falcon 9 Block 5 | Starlink Group 6-78

Agency: SpaceX

Status: Launch Successful

Launch date: Nov. 21, 2025, 3:39 a.m. UTC

Rocket: Falcon 9

Launch pad: Launch Complex 39A

Location: Kennedy Space Center, FL, USA

...

Latest news about this satellite

News about space launch
Florida Space Coast tops 100 launches as Space Force pushes for range upgrades

Col. Brian Chatman: The volume is here to stay. The next step is making sure the infrastructure can keep up The post Florida Space Coast tops 100 launches as Space Force pushes for range upgrades appeared first on SpaceNews.

News about space launch
Live coverage: Falcon 9 Starlink mission marks 100th launch of the year from Florida’s Space Coast

The Starlink 6-78 mission, carrying 29 satellites for SpaceX’s internet service, is targeted to roar away from launch complex 39A at 10:12 p.m. EST (0321 UTC).

News about space launch
Launch Roundup: Innospace to debut new rocket, SpaceX to launch five Falcon 9 missions

Another busy week of launches has arrived, with SpaceX planning to launch five Falcon 9… The post Launch Roundup: Innospace to debut new rocket, SpaceX to launch five Falcon 9 missions appeared first on NASASpaceFlight.com.


Newsletter sign-up

Weekly statistics, charts and insights to help you stay on top of the space industry.